Time,TemperatureF,DewpointF,PressureIn,WindDirection,WindDirectionDegrees,WindSpeedMPH,WindSpeedGustMPH,Humidity,HourlyPrecipIn,Conditions,Clouds,dailyrainin,SoftwareType,DateUTC
2013-06-29 00:06:00,76.8,74.3,29.65,WSW,247,0.0,-999.0,92,-99.99,,,0.00,Acu-Link.com,2013-06-29 04:06:00,
2013-06-29 00:21:00,77.0,74.8,29.63,SSE,157,3.1,-999.0,93,-99.99,,,0.00,Acu-Link.com,2013-06-29 04:21:00,
2013-06-29 00:37:00,77.0,74.8,29.63,ENE,67,0.0,-999.0,93,-99.99,,,0.00,Acu-Link.com,2013-06-29 04:37:00,
2013-06-29 00:52:00,77.0,74.8,29.63,East,90,1.1,-999.0,93,-99.99,,,0.00,Acu-Link.com,2013-06-29 04:52:00,
2013-06-29 01:07:00,77.0,75.1,29.63,SE,135,1.6,-999.0,94,-99.99,,,0.00,Acu-Link.com,2013-06-29 05:07:00,
2013-06-29 01:22:00,77.0,75.1,29.63,East,90,0.0,-999.0,94,-99.99,,,0.00,Acu-Link.com,2013-06-29 05:22:00,
2013-06-29 01:37:00,77.0,75.1,29.63,West,270,0.0,-999.0,94,-99.99,,,0.00,Acu-Link.com,2013-06-29 05:37:00,
2013-06-29 01:53:00,76.8,75.3,29.62,North,0,0.0,-999.0,95,-99.99,,,0.00,Acu-Link.com,2013-06-29 05:53:00,
2013-06-29 02:08:00,76.8,75.3,29.62,NE,45,0.0,-999.0,95,-99.99,,,0.00,Acu-Link.com,2013-06-29 06:08:00,
2013-06-29 02:23:00,76.8,75.3,29.62,NNE,22,1.1,-999.0,95,-99.99,,,0.00,Acu-Link.com,2013-06-29 06:23:00,
2013-06-29 02:39:00,76.8,75.3,29.62,East,90,1.1,-999.0,95,-99.99,,,0.00,Acu-Link.com,2013-06-29 06:39:00,
2013-06-29 02:54:00,76.8,75.3,29.63,NNW,337,1.6,-999.0,95,-99.99,,,0.00,Acu-Link.com,2013-06-29 06:54:00,
2013-06-29 03:09:00,76.8,75.3,29.63,NNW,337,1.6,-999.0,95,-99.99,,,0.00,Acu-Link.com,2013-06-29 07:09:00,
2013-06-29 03:25:00,76.8,75.3,29.63,WSW,247,0.0,-999.0,95,-99.99,,,0.00,Acu-Link.com,2013-06-29 07:25:00,
2013-06-29 03:40:00,76.8,75.3,29.63,NE,45,0.0,-999.0,95,-99.99,,,0.00,Acu-Link.com,2013-06-29 07:40:00,
2013-06-29 03:55:00,76.8,75.3,29.63,NE,45,0.0,-999.0,95,-99.99,,,0.00,Acu-Link.com,2013-06-29 07:55:00,
2013-06-29 04:11:00,77.0,75.5,29.63,NNE,22,0.0,-999.0,95,-99.99,,,0.00,Acu-Link.com,2013-06-29 08:11:00,
2013-06-29 04:26:00,77.0,75.5,29.63,NE,45,0.0,-999.0,95,-99.99,,,0.00,Acu-Link.com,2013-06-29 08:26:00,
2013-06-29 04:41:00,77.0,75.8,29.63,NE,45,0.0,-999.0,96,-99.99,,,0.00,Acu-Link.com,2013-06-29 08:41:00,
2013-06-29 04:57:00,77.0,75.8,29.64,NE,45,0.0,-999.0,96,-99.99,,,0.00,Acu-Link.com,2013-06-29 08:57:00,
2013-06-29 05:12:00,77.2,75.9,29.63,SSE,157,1.1,-999.0,96,-99.99,,,0.00,Acu-Link.com,2013-06-29 09:12:00,
2013-06-29 05:27:00,77.4,76.1,29.63,SSE,157,0.0,-999.0,96,-99.99,,,0.00,Acu-Link.com,2013-06-29 09:27:00,
2013-06-29 05:42:00,77.5,76.3,29.63,NE,45,1.1,-999.0,96,-99.99,,,0.00,Acu-Link.com,2013-06-29 09:42:00,
2013-06-29 05:57:00,77.5,76.3,29.63,NW,315,0.0,-999.0,96,-99.99,,,0.00,Acu-Link.com,2013-06-29 09:57:00,
2013-06-29 06:12:00,77.5,76.3,29.63,SSE,157,1.1,-999.0,96,-99.99,,,0.00,Acu-Link.com,2013-06-29 10:12:00,
2013-06-29 06:28:00,77.4,76.1,29.63,SSE,157,1.6,-999.0,96,-99.99,,,0.00,Acu-Link.com,2013-06-29 10:28:00,
2013-06-29 06:43:00,77.4,76.1,29.64,East,90,1.6,-999.0,96,-99.99,,,0.00,Acu-Link.com,2013-06-29 10:43:00,
2013-06-29 06:58:00,77.2,75.9,29.64,SSW,202,1.1,-999.0,96,-99.99,,,0.00,Acu-Link.com,2013-06-29 10:58:00,
2013-06-29 07:13:00,77.2,75.9,29.65,NW,315,0.0,-999.0,96,-99.99,,,0.00,Acu-Link.com,2013-06-29 11:13:00,
2013-06-29 07:29:00,77.4,76.1,29.65,ESE,112,1.6,-999.0,96,-99.99,,,0.00,Acu-Link.com,2013-06-29 11:29:00,
2013-06-29 07:44:00,77.9,76.3,29.65,SSW,202,0.0,-999.0,95,-99.99,,,0.00,Acu-Link.com,2013-06-29 11:44:00,
2013-06-29 07:59:00,78.4,76.6,29.65,South,180,1.6,-999.0,94,-99.99,,,0.00,Acu-Link.com,2013-06-29 11:59:00,
2013-06-29 08:15:00,79.9,77.0,29.64,West,270,2.2,-999.0,91,-99.99,,,0.00,Acu-Link.com,2013-06-29 12:15:00,
2013-06-29 08:30:00,80.8,76.9,29.64,North,0,2.2,-999.0,88,-99.99,,,0.00,Acu-Link.com,2013-06-29 12:30:00,
2013-06-29 08:45:00,81.3,76.7,29.65,WNW,292,1.6,-999.0,86,-99.99,,,0.00,Acu-Link.com,2013-06-29 12:45:00,
2013-06-29 09:00:00,81.9,77.2,29.65,West,270,2.2,-999.0,86,-99.99,,,0.00,Acu-Link.com,2013-06-29 13:00:00,
2013-06-29 09:15:00,81.9,77.6,29.65,North,0,3.8,-999.0,87,-99.99,,,0.00,Acu-Link.com,2013-06-29 13:15:00,
2013-06-29 09:31:00,80.6,75.7,29.66,NNW,337,3.1,-999.0,85,-99.99,,,0.00,Acu-Link.com,2013-06-29 13:31:00,
2013-06-29 09:46:00,80.6,75.7,29.66,SW,225,1.6,-999.0,85,-99.99,,,0.00,Acu-Link.com,2013-06-29 13:46:00,
2013-06-29 10:01:00,80.2,75.7,29.67,North,0,0.0,-999.0,86,-99.99,,,0.00,Acu-Link.com,2013-06-29 14:01:00,
2013-06-29 10:16:00,79.7,74.8,29.66,SW,225,2.7,-999.0,85,-99.99,,,0.00,Acu-Link.com,2013-06-29 14:16:00,
2013-06-29 10:31:00,79.3,74.4,29.66,North,0,2.2,-999.0,85,-99.99,,,0.00,Acu-Link.com,2013-06-29 14:31:00,
2013-06-29 10:47:00,79.0,74.1,29.66,ESE,112,0.0,-999.0,85,-99.99,,,0.00,Acu-Link.com,2013-06-29 14:47:00,
2013-06-29 11:02:00,79.3,74.8,29.66,SW,225,1.6,-999.0,86,-99.99,,,0.00,Acu-Link.com,2013-06-29 15:02:00,
2013-06-29 11:17:00,79.9,75.0,29.66,North,0,3.1,-999.0,85,-99.99,,,0.00,Acu-Link.com,2013-06-29 15:17:00,
2013-06-29 11:33:00,80.8,74.4,29.66,North,0,2.7,-999.0,81,-99.99,,,0.00,Acu-Link.com,2013-06-29 15:33:00,
2013-06-29 11:48:00,81.0,74.2,29.67,NNW,337,3.1,-999.0,80,-99.99,,,0.00,Acu-Link.com,2013-06-29 15:48:00,
2013-06-29 12:03:00,81.1,74.7,29.67,NNE,22,2.7,-999.0,81,-99.99,,,0.00,Acu-Link.com,2013-06-29 16:03:00,
2013-06-29 12:18:00,82.8,74.8,29.66,West,270,2.7,-999.0,77,-99.99,,,0.00,Acu-Link.com,2013-06-29 16:18:00,
2013-06-29 12:33:00,84.2,75.4,29.65,WNW,292,2.2,-999.0,75,-99.99,,,0.00,Acu-Link.com,2013-06-29 16:33:00,
2013-06-29 12:49:00,82.2,74.3,29.65,NW,315,2.7,-999.0,77,-99.99,,,0.00,Acu-Link.com,2013-06-29 16:49:00,
2013-06-29 13:04:00,81.7,74.9,29.65,NE,45,1.1,-999.0,80,-99.99,,,0.00,Acu-Link.com,2013-06-29 17:04:00,
2013-06-29 13:19:00,81.0,74.9,29.66,NE,45,1.6,-999.0,82,-99.99,,,0.00,Acu-Link.com,2013-06-29 17:19:00,
2013-06-29 13:34:00,80.8,75.5,29.65,NNE,22,1.6,-999.0,84,-99.99,,,0.00,Acu-Link.com,2013-06-29 17:34:00,
2013-06-29 13:50:00,81.1,74.7,29.65,West,270,1.1,-999.0,81,-99.99,,,0.00,Acu-Link.com,2013-06-29 17:50:00,
2013-06-29 14:05:00,81.7,74.5,29.65,NNW,337,1.6,-999.0,79,-99.99,,,0.00,Acu-Link.com,2013-06-29 18:05:00,
2013-06-29 14:20:00,82.6,74.2,29.65,North,0,2.7,-999.0,76,-99.99,,,0.00,Acu-Link.com,2013-06-29 18:20:00,
2013-06-29 14:35:00,84.6,74.9,29.65,NNW,337,1.6,-999.0,73,-99.99,,,0.00,Acu-Link.com,2013-06-29 18:35:00,
2013-06-29 14:50:00,85.1,74.6,29.64,WNW,292,1.6,-999.0,71,-99.99,,,0.00,Acu-Link.com,2013-06-29 18:50:00,
2013-06-29 15:06:00,88.5,75.2,29.63,WNW,292,1.6,-999.0,65,-99.99,,,0.00,Acu-Link.com,2013-06-29 19:06:00,
2013-06-29 15:21:00,86.9,75.5,29.63,South,180,2.7,-999.0,69,-99.99,,,0.00,Acu-Link.com,2013-06-29 19:21:00,
2013-06-29 15:36:00,86.4,75.0,29.62,North,0,1.6,-999.0,69,-99.99,,,0.00,Acu-Link.com,2013-06-29 19:36:00,
2013-06-29 15:52:00,86.4,75.0,29.61,ESE,112,2.7,-999.0,69,-99.99,,,0.00,Acu-Link.com,2013-06-29 19:52:00,
2013-06-29 16:07:00,87.1,74.8,29.61,NNE,22,3.1,-999.0,67,-99.99,,,0.00,Acu-Link.com,2013-06-29 20:07:00,
2013-06-29 16:22:00,90.1,75.3,29.60,ESE,112,2.2,-999.0,62,-99.99,,,0.00,Acu-Link.com,2013-06-29 20:22:00,
2013-06-29 16:37:00,87.6,75.7,29.60,SE,135,0.0,-999.0,68,-99.99,,,0.00,Acu-Link.com,2013-06-29 20:37:00,
2013-06-29 16:52:00,87.3,75.4,29.60,SSE,157,2.2,-999.0,68,-99.99,,,0.00,Acu-Link.com,2013-06-29 20:52:00,
2013-06-29 17:07:00,86.9,76.3,29.61,SW,225,1.1,-999.0,71,-99.99,,,0.00,Acu-Link.com,2013-06-29 21:07:00,
2013-06-29 17:23:00,86.0,75.9,29.61,SSE,157,1.6,-999.0,72,-99.99,,,0.00,Acu-Link.com,2013-06-29 21:23:00,
2013-06-29 17:38:00,86.0,75.9,29.60,West,270,1.1,-999.0,72,-99.99,,,0.00,Acu-Link.com,2013-06-29 21:38:00,
2013-06-29 17:53:00,86.4,75.8,29.59,West,270,2.2,-999.0,71,-99.99,,,0.00,Acu-Link.com,2013-06-29 21:53:00,
2013-06-29 18:08:00,85.8,75.3,29.59,NNE,22,0.0,-999.0,71,-99.99,,,0.00,Acu-Link.com,2013-06-29 22:08:00,
2013-06-29 18:24:00,85.1,75.4,29.59,SE,135,0.0,-999.0,73,-99.99,,,0.00,Acu-Link.com,2013-06-29 22:24:00,
2013-06-29 18:39:00,84.2,74.6,29.59,East,90,0.0,-999.0,73,-99.99,,,0.00,Acu-Link.com,2013-06-29 22:39:00,
2013-06-29 18:54:00,84.2,75.0,29.59,NNW,337,0.0,-999.0,74,-99.99,,,0.00,Acu-Link.com,2013-06-29 22:54:00,
2013-06-29 19:10:00,83.3,74.1,29.60,NE,45,0.0,-999.0,74,-99.99,,,0.00,Acu-Link.com,2013-06-29 23:10:00,
2013-06-29 19:25:00,82.4,74.1,29.60,North,0,0.0,-999.0,76,-99.99,,,0.00,Acu-Link.com,2013-06-29 23:25:00,
2013-06-29 19:40:00,81.3,73.4,29.61,ESE,112,1.1,-999.0,77,-99.99,,,0.00,Acu-Link.com,2013-06-29 23:40:00,
2013-06-29 19:55:00,81.1,73.6,29.62,SSE,157,0.0,-999.0,78,-99.99,,,0.00,Acu-Link.com,2013-06-29 23:55:00,
2013-06-29 20:10:00,80.4,73.7,29.61,SE,135,0.0,-999.0,80,-99.99,,,0.00,Acu-Link.com,2013-06-30 00:10:00,
2013-06-29 20:26:00,79.9,73.5,29.62,WNW,292,1.6,-999.0,81,-99.99,,,0.00,Acu-Link.com,2013-06-30 00:26:00,
2013-06-29 20:41:00,79.5,73.5,29.62,ENE,67,0.0,-999.0,82,-99.99,,,0.00,Acu-Link.com,2013-06-30 00:41:00,
2013-06-29 20:56:00,79.0,73.4,29.63,NE,45,0.0,-999.0,83,-99.99,,,0.00,Acu-Link.com,2013-06-30 00:56:00,
2013-06-29 21:11:00,78.6,73.4,29.62,SSE,157,2.2,-999.0,84,-99.99,,,0.00,Acu-Link.com,2013-06-30 01:11:00,
2013-06-29 21:27:00,78.3,73.4,29.63,SE,135,0.0,-999.0,85,-99.99,,,0.00,Acu-Link.com,2013-06-30 01:27:00,
2013-06-29 21:42:00,77.9,73.0,29.63,SE,135,1.6,-999.0,85,-99.99,,,0.00,Acu-Link.com,2013-06-30 01:42:00,
2013-06-29 21:57:00,77.5,73.0,29.63,NE,45,1.1,-999.0,86,-99.99,,,0.00,Acu-Link.com,2013-06-30 01:57:00,
2013-06-29 22:12:00,77.4,73.2,29.63,ESE,112,0.0,-999.0,87,-99.99,,,0.00,Acu-Link.com,2013-06-30 02:12:00,
2013-06-29 22:28:00,77.2,73.0,29.64,ENE,67,0.0,-999.0,87,-99.99,,,0.00,Acu-Link.com,2013-06-30 02:28:00,
2013-06-29 22:43:00,77.0,73.2,29.65,NE,45,0.0,-999.0,88,-99.99,,,0.00,Acu-Link.com,2013-06-30 02:43:00,
2013-06-29 22:58:00,76.8,73.0,29.65,NW,315,0.0,-999.0,88,-99.99,,,0.00,Acu-Link.com,2013-06-30 02:58:00,
2013-06-29 23:13:00,76.6,73.1,29.64,East,90,0.0,-999.0,89,-99.99,,,0.00,Acu-Link.com,2013-06-30 03:13:00,
2013-06-29 23:29:00,76.6,73.1,29.65,ENE,67,0.0,-999.0,89,-99.99,,,0.00,Acu-Link.com,2013-06-30 03:29:00,
2013-06-29 23:44:00,76.5,73.0,29.64,SSE,157,0.0,-999.0,89,-99.99,,,0.00,Acu-Link.com,2013-06-30 03:44:00,
2013-06-29 23:59:00,76.6,73.1,29.64,WSW,247,0.0,-999.0,89,-99.99,,,0.00,Acu-Link.com,2013-06-30 03:59:00,